{"data":{"norad_id":49727,"intl_designator":"2021-115D","name":"STARLINK-3242","alt_names":[],"object_type":"PAYLOAD","status":"ACTIVE","operator":null,"country":"US","launch_date":"2021-12-02","launch_site_code":"AFETR","launch_vehicle":null,"mission":null,"orbit_class":"UNKNOWN","rcs_meters":null,"size_class":null,"mass_kg":null,"dimensions":null,"purposes":["comms"],"wikipedia_slug":null,"has_3d_model":false,"image_url":null,"decayed_at":null,"tle_current":{"epoch":"2026-05-24T19:20:49.557696Z","epoch_age_seconds":95389,"freshness":"FRESH","line1":"1 49727U 21115D   26144.80612914  .00000260  00000+0  34390-4 0  9997","line2":"2 49727  53.2131 177.4231 0001020  76.3135 283.7970 15.08835799246888","mean_motion":15.08835799,"eccentricity":0.000102,"inclination_deg":53.2131,"raan_deg":177.4231,"arg_perigee_deg":76.3135,"mean_anomaly_deg":283.797,"bstar":3.439e-5,"rev_number":24688,"period_min":95.437820401291,"perigee_km":539.05060466082,"apogee_km":540.4618548797,"semimajor_km":6917.8932297703,"source":"CELESTRAK","updated_at":"2026-05-25T13:38:16.831266Z"}}}